Keene, NH

10:51 AM EST on December 14, 2019 (GMT -0500)
Dillant-Hopkins

Weather History for KEEN - November, 2019

Change the Weather History Date:

Saturday, November 16, 2019

  Actual Average Record
Temperature  
Mean Temperature 22 °F -  
Max Temperature 30 °F 46 °F 70 °F (1926)
Min Temperature 12 °F 26 °F 0 °F (1933)
Degree Days  
Heating Degree Days 43    
Moisture  
Dew Point 5 °F    
Average Humidity 47    
Maximum Humidity 80    
Minimum Humidity 29    
Precipitation  
Precipitation 0.00 in - - ()
Sea Level Pressure  
Sea Level Pressure 30.51 in    
Wind  
Wind Speed 10 mph ()    
Max Wind Speed 20 mph    
Max Gust Speed 26 mph    
Visibility 9.8 miles    
Events Snow    
Averages and records for this station are not official NWS values.
T = Trace of Precipitation, MM = Missing Value Source: Averaged Metar Reports

Daily Weather History Graph

Daily Weather History Graph

Search for Another Location

Airport or City:

Astronomy

Nov. 16, 2019 Rise Set
Actual Time 6:42 AM EST 4:25 PM EST
Civil Twilight 6:11 AM EST 4:55 PM EST
Nautical Twilight 5:37 AM EST 5:29 PM EST
Astronomical Twilight 5:03 AM EST 6:03 PM EST
Moon 7:52 PM EST (11/16) 10:36 AM EST (11/16)
Length of Visible Light 10h 44m
Length of Day
9h 42m
Waning Gibbous, 82% of the Moon is Illuminated
Nov 16
Waning Gibbous
Nov 19
Last Quarter
Nov 26
New
Dec 4
First Quarter
Dec 12
Full

Hourly Weather History & Observations

Time (EST) Temp. Windchill Dew Point Humidity Pressure Visibility Wind Dir Wind Speed Gust Speed Precip Events Conditions
12:56 AM 30.9 °F 21.7 °F 17.1 °F 57% 30.30 in 10.0 mi NNW 11.5 mph 19.6 mph N/A   Clear
1:56 AM 28.9 °F 16.1 °F 8.1 °F 41% 30.34 in 10.0 mi North 19.6 mph 25.3 mph N/A   Clear
2:56 AM 26.1 °F 12.7 °F 6.1 °F 43% 30.37 in 10.0 mi North 18.4 mph 26.5 mph N/A   Clear
3:56 AM 24.1 °F 12.0 °F 3.9 °F 42% 30.41 in 10.0 mi North 13.8 mph 21.9 mph N/A   Clear
4:56 AM 21.9 °F 9.2 °F 3.9 °F 46% 30.45 in 10.0 mi North 13.8 mph - N/A   Clear
5:56 AM 19.9 °F 10.1 °F 6.1 °F 55% 30.49 in 10.0 mi North 8.1 mph - N/A   Clear
6:56 AM 19.0 °F 9.0 °F 6.1 °F 57% 30.53 in 10.0 mi North 8.1 mph - N/A   Clear
7:56 AM 21.0 °F 9.9 °F 3.9 °F 48% 30.56 in 10.0 mi North 10.4 mph - N/A   Clear
8:56 AM 23.0 °F 12.4 °F 3.9 °F 44% 30.57 in 9.0 mi North 10.4 mph - 0.00 in   Clear
9:56 AM 25.0 °F 13.6 °F 3.9 °F 41% 30.57 in 10.0 mi NNW 12.7 mph - 0.00 in   Clear
10:56 AM 26.1 °F 17.6 °F 5.0 °F 41% 30.57 in 9.0 mi North 8.1 mph - 0.00 in Snow Light Snow
11:56 AM 28.9 °F 19.2 °F 6.1 °F 38% 30.55 in 9.0 mi NNW 11.5 mph - 0.00 in Snow Light Snow
12:56 PM 30.0 °F 20.5 °F 5.0 °F 35% 30.53 in 9.0 mi NNW 11.5 mph - 0.00 in   Clear
1:56 PM 30.0 °F 19.5 °F 1.9 °F 30% 30.51 in 10.0 mi NNW 13.8 mph - N/A   Clear
2:56 PM 30.9 °F 19.8 °F 1.9 °F 29% 30.51 in 10.0 mi North 16.1 mph 19.6 mph 0.00 in   Clear
3:56 PM 28.9 °F 18.6 °F 1.0 °F 30% 30.51 in 10.0 mi North 12.7 mph - 0.00 in   Clear
4:56 PM 26.1 °F 17.6 °F 1.9 °F 35% 30.53 in 10.0 mi North 8.1 mph - N/A   Clear
5:56 PM 25.0 °F 16.3 °F 1.0 °F 36% 30.55 in 10.0 mi NNE 8.1 mph - 0.00 in   Clear
6:56 PM 21.9 °F 17.2 °F 3.9 °F 46% 30.56 in 10.0 mi NNE 3.5 mph - N/A   Clear
7:56 PM 19.9 °F - 5.0 °F 52% 30.56 in 10.0 mi Calm Calm - N/A   Clear
8:56 PM 18.0 °F 11.1 °F 5.0 °F 57% 30.58 in 10.0 mi SSW 4.6 mph - N/A   Clear
9:56 PM 16.0 °F 10.4 °F 6.1 °F 65% 30.58 in 10.0 mi SSW 3.5 mph - N/A   Clear
10:56 PM 14.0 °F - 6.1 °F 71% 30.57 in 10.0 mi Calm Calm - N/A   Clear
11:56 PM 12.0 °F 5.9 °F 7.0 °F 80% 30.56 in 10.0 mi South 3.5 mph - N/A   Clear